Tracking 19149 objects as of 22-Apr-2018
HD Live streaming from Space Station
objects crossing your sky now

COSMOS 1535

Track COSMOS 1535 now!
10-day predictions
COSMOS 1535 is classified as:


NORAD ID: 14679
Int'l Code: 1984-010A
Perigee: 957.5 km
Apogee: 1,019.5 km
Inclination: 83.0 °
Period: 104.7 minutes
Semi major axis: 7359 km
RCS: 2.2768 m2 (large)
Launch date: February 2, 1984
Source: Commonwealth of Independent States (former USSR) (CIS)
Launch site: PLESETSK MISSILE AND SPACE COMPLEX (PKMTR)
aabbcc
Your satellite tracking list
Your tracking list is empty




NASA's NSSDC Master Catalog

Two Line Element Set (TLE):
1 14679U 84010A   18111.85903264  .00000041  00000-0  26338-4 0  9990
2 14679  82.9613 197.1225 0042161  11.6484 126.4433 13.75087890685801
Source of the keplerian elements: AFSPC